When you browse on this site, cookies collect data to enhance your experience and personalize the content and advertising you see.
Visit our Privacy Policy to learn more. By continuing to use the site, you agree to this use of cookies and data.

Météo par heure à Oakland

Ce jour, 8 Juillet, Mercredi

Heure Température Précipitation Vent Pression Humidité
00:00 +15°C° 0 mm 2 m/s 756 mmHg 83%
01:00 +14°C° 0 mm 2 m/s 756 mmHg 85%
02:00 +14°C° 0 mm 2 m/s 756 mmHg 85%
03:00 +14°C° 0 mm 2 m/s 756 mmHg 86%
04:00 +14°C° 0 mm 2 m/s 756 mmHg 86%
05:00 +15°C° 0 mm 1 m/s 756 mmHg 81%
06:00 +16°C° 0 mm 1 m/s 756 mmHg 75%
07:00 +18°C° 0 mm 1 m/s 756 mmHg 70%
08:00 +20°C° 0 mm 1 m/s 756 mmHg 62%
09:00 +23°C° 0 mm 1 m/s 756 mmHg 54%
10:00 +25°C° 0 mm 1 m/s 756 mmHg 46%
11:00 +26°C° 0 mm 2 m/s 756 mmHg 43%
12:00 +27°C° 0 mm 3 m/s 756 mmHg 41%
13:00 +28°C° 0 mm 4 m/s 756 mmHg 39%
14:00 +27°C° 0 mm 4 m/s 755 mmHg 39%
15:00 +27°C° 0 mm 4 m/s 755 mmHg 40%
16:00 +26°C° 0 mm 4 m/s 755 mmHg 41%
17:00 +25°C° 0 mm 3 m/s 755 mmHg 46%
18:00 +22°C° 0 mm 3 m/s 755 mmHg 50%
19:00 +20°C° 0 mm 3 m/s 754 mmHg 55%
20:00 +19°C° 0 mm 3 m/s 755 mmHg 59%
21:00 +18°C° 0 mm 2 m/s 755 mmHg 62%
22:00 +17°C° 0 mm 2 m/s 755 mmHg 66%
23:00 +17°C° 0 mm 2 m/s 755 mmHg 68%

Demain, 9 Juillet, Jeudi

Heure Température Précipitation Vent Pression Humidité
00:00 +16°C° 0 mm 2 m/s 755 mmHg 70%
01:00 +16°C° 0 mm 2 m/s 755 mmHg 72%
02:00 +15°C° 0 mm 1 m/s 755 mmHg 73%
03:00 +15°C° 0 mm 1 m/s 755 mmHg 74%
04:00 +15°C° 0 mm 1 m/s 754 mmHg 75%
05:00 +16°C° 0 mm 1 m/s 755 mmHg 69%
06:00 +17°C° 0 mm 0 m/s 755 mmHg 64%
07:00 +18°C° 0 mm 0 m/s 755 mmHg 59%
08:00 +22°C° 0 mm 1 m/s 755 mmHg 52%
09:00 +25°C° 0 mm 1 m/s 755 mmHg 46%
10:00 +27°C° 0 mm 2 m/s 756 mmHg 39%
11:00 +28°C° 0 mm 2 m/s 756 mmHg 38%
12:00 +29°C° 0 mm 3 m/s 756 mmHg 36%
13:00 +29°C° 0 mm 4 m/s 755 mmHg 34%
14:00 +29°C° 0 mm 4 m/s 755 mmHg 35%
15:00 +29°C° 0 mm 4 m/s 755 mmHg 36%
16:00 +29°C° 0 mm 4 m/s 754 mmHg 37%
17:00 +27°C° 0 mm 4 m/s 755 mmHg 41%
18:00 +25°C° 0 mm 3 m/s 755 mmHg 46%
19:00 +24°C° 0 mm 3 m/s 755 mmHg 50%
20:00 +21°C° 0 mm 3 m/s 755 mmHg 54%
21:00 +20°C° 0 mm 3 m/s 755 mmHg 59%
22:00 +19°C° 0 mm 3 m/s 756 mmHg 64%
23:00 +18°C° 0 mm 2 m/s 756 mmHg 66%

Après-demain, 10 Juillet, Vendredi

Heure Température Précipitation Vent Pression Humidité
00:00 +17°C° 0 mm 2 m/s 756 mmHg 69%
01:00 +17°C° 0 mm 2 m/s 756 mmHg 72%
02:00 +16°C° 0 mm 2 m/s 756 mmHg 73%
03:00 +16°C° 0 mm 2 m/s 756 mmHg 75%
04:00 +16°C° 0 mm 2 m/s 756 mmHg 77%
05:00 +18°C° 0 mm 1 m/s 756 mmHg 72%
06:00 +19°C° 0 mm 1 m/s 757 mmHg 68%
07:00 +20°C° 0 mm 1 m/s 757 mmHg 64%
08:00 +22°C° 0 mm 1 m/s 757 mmHg 57%
09:00 +24°C° 0 mm 2 m/s 758 mmHg 50%
10:00 +26°C° 0 mm 2 m/s 758 mmHg 43%
11:00 +27°C° 0 mm 2 m/s 758 mmHg 40%
12:00 +28°C° 0 mm 3 m/s 758 mmHg 38%
13:00 +29°C° 0 mm 4 m/s 758 mmHg 35%
14:00 +28°C° 0 mm 4 m/s 757 mmHg 37%
15:00 +27°C° 0 mm 4 m/s 757 mmHg 39%
16:00 +26°C° 0 mm 4 m/s 757 mmHg 40%
17:00 +23°C° 0 mm 4 m/s 757 mmHg 47%
18:00 +22°C° 0 mm 3 m/s 757 mmHg 53%
19:00 +20°C° 0 mm 3 m/s 757 mmHg 60%
20:00 +19°C° 0 mm 3 m/s 758 mmHg 64%
21:00 +17°C° 0 mm 3 m/s 758 mmHg 69%
22:00 +16°C° 0 mm 3 m/s 758 mmHg 73%
23:00 +16°C° 0 mm 2 m/s 758 mmHg 75%

11 Juillet, Samedi

Heure Température Précipitation Vent Pression Humidité
00:00 +16°C° 0 mm 2 m/s 758 mmHg 77%
01:00 +15°C° 0 mm 2 m/s 758 mmHg 80%
02:00 +15°C° 0 mm 2 m/s 758 mmHg 81%
03:00 +14°C° 0 mm 2 m/s 758 mmHg 83%
04:00 +14°C° 0 mm 2 m/s 758 mmHg 85%
05:00 +15°C° 0 mm 2 m/s 759 mmHg 82%
06:00 +15°C° 0 mm 2 m/s 759 mmHg 78%
07:00 +16°C° 0 mm 2 m/s 759 mmHg 75%
08:00 +18°C° 0 mm 2 m/s 759 mmHg 67%
09:00 +20°C° 0 mm 3 m/s 759 mmHg 59%
10:00 +22°C° 0 mm 3 m/s 759 mmHg 51%
11:00 +24°C° 0 mm 3 m/s 759 mmHg 49%
12:00 +25°C° 0 mm 4 m/s 759 mmHg 47%
13:00 +25°C° 0 mm 4 m/s 759 mmHg 45%
14:00 +25°C° 0 mm 4 m/s 759 mmHg 46%
15:00 +23°C° 0 mm 4 m/s 758 mmHg 48%
16:00 +22°C° 0 mm 5 m/s 758 mmHg 50%
17:00 +21°C° 0 mm 4 m/s 758 mmHg 57%
18:00 +19°C° 0 mm 4 m/s 758 mmHg 63%
19:00 +17°C° 0 mm 4 m/s 758 mmHg 70%
20:00 +15°C° 0 mm 4 m/s 759 mmHg 74%
21:00 +16°C° 0 mm 3 m/s 759 mmHg 77%
22:00 +14°C° 0 mm 3 m/s 759 mmHg 81%
23:00 +14°C° 0 mm 3 m/s 759 mmHg 82%

12 Juillet, Dimanche

Heure Température Précipitation Vent Pression Humidité
00:00 +13°C° 0 mm 3 m/s 759 mmHg 83%
01:00 +13°C° 0 mm 3 m/s 758 mmHg 84%
02:00 +14°C° 0 mm 2 m/s 758 mmHg 85%
03:00 +14°C° 0 mm 2 m/s 758 mmHg 85%
04:00 +14°C° 0 mm 2 m/s 758 mmHg 86%
05:00 +15°C° 0 mm 2 m/s 758 mmHg 82%
06:00 +15°C° 0 mm 2 m/s 759 mmHg 78%
07:00 +16°C° 0 mm 1 m/s 759 mmHg 73%
08:00 +20°C° 0 mm 1 m/s 758 mmHg 64%
09:00 +22°C° 0 mm 1 m/s 758 mmHg 54%
10:00 +25°C° 0 mm 1 m/s 758 mmHg 45%
11:00 +26°C° 0 mm 2 m/s 758 mmHg 41%
12:00 +27°C° 0 mm 3 m/s 757 mmHg 38%
13:00 +28°C° 0 mm 3 m/s 757 mmHg 34%
14:00 +28°C° 0 mm 4 m/s 756 mmHg 35%
15:00 +27°C° 0 mm 4 m/s 756 mmHg 37%
16:00 +27°C° 0 mm 4 m/s 756 mmHg 38%
17:00 +25°C° 0 mm 4 m/s 756 mmHg 44%
18:00 +22°C° 0 mm 3 m/s 756 mmHg 51%
19:00 +20°C° 0 mm 3 m/s 756 mmHg 58%
20:00 +19°C° 0 mm 3 m/s 756 mmHg 64%
21:00 +17°C° 0 mm 3 m/s 756 mmHg 70%
22:00 +16°C° 0 mm 3 m/s 756 mmHg 76%
23:00 +16°C° 0 mm 3 m/s 756 mmHg 79%

13 Juillet, Lundi

Heure Température Précipitation Vent Pression Humidité
00:00 +14°C° 0 mm 3 m/s 756 mmHg 81%
01:00 +14°C° 0 mm 3 m/s 756 mmHg 84%
02:00 +14°C° 0 mm 3 m/s 756 mmHg 84%
03:00 +13°C° 0 mm 3 m/s 756 mmHg 85%
04:00 +13°C° 0 mm 3 m/s 756 mmHg 86%
05:00 +14°C° 0 mm 3 m/s 756 mmHg 83%
06:00 +14°C° 0 mm 3 m/s 756 mmHg 81%
07:00 +16°C° 0 mm 3 m/s 757 mmHg 78%
08:00 +17°C° 0 mm 3 m/s 757 mmHg 71%
09:00 +19°C° 0 mm 3 m/s 757 mmHg 65%
10:00 +21°C° 0 mm 3 m/s 757 mmHg 58%
11:00 +21°C° 0 mm 3 m/s 757 mmHg 56%
12:00 +22°C° 0 mm 4 m/s 756 mmHg 53%
13:00 +23°C° 0 mm 4 m/s 756 mmHg 50%
14:00 +23°C° 0 mm 4 m/s 756 mmHg 52%
15:00 +22°C° 0 mm 5 m/s 756 mmHg 53%
16:00 +21°C° 0 mm 5 m/s 756 mmHg 55%
17:00 +20°C° 0 mm 5 m/s 756 mmHg 60%
18:00 +18°C° 0 mm 4 m/s 756 mmHg 65%
19:00 +17°C° 0 mm 4 m/s 756 mmHg 70%
20:00 +15°C° 0 mm 4 m/s 756 mmHg 74%
21:00 +14°C° 0 mm 4 m/s 756 mmHg 77%
22:00 +14°C° 0 mm 4 m/s 756 mmHg 81%
23:00 +13°C° 0 mm 3 m/s 756 mmHg 81%
Voir plus